Tracking 30743 objects as of 20-Jun-2025
HD Live streaming from Space Station
objects crossing your sky now

METEOSAT 4 AKM

Track METEOSAT 4 AKM now!


NORAD ID: 20800
Int'l Code: 1989-020E
Perigee: 35,198.8 km
Apogee: 36,280.6 km
Inclination: 11.4 °
Period: 1,433.3 minutes
Semi major axis: 42110 km
RCS: 1 m2 (large)
Launch date: March 6, 1989
Source: European Space Agency (ESA)
Launch site: FRENCH GUIANA (FRGUI)

Note: This is a ROCKET BODY
Your satellite tracking list
Your tracking list is empty




NASA's NSSDC Master Catalog

Two Line Element Set (TLE):
1 20800U 89020E   25171.54922456 -.00000033  00000-0  00000-0 0  9999
2 20800  11.4211 333.5089 0128450 245.8766 121.5746  1.00464808112574
Source of the keplerian elements: AFSPC